User: anonymous   Login
Location: Caltech
(34.1382°N, 118.1253°W)
Time: 15:24:00
(UTC-07:00)
Language:

TITAN 4B R/B - Orbit

View from above orbital plane
View from above orbital plane
View from above satellite
View from above satellite

Ground track
Ground track

The orbit data is extracted from the following two-line orbital elements,

1 28647U 05016B   15086.82467830 0.00004800  00000-0  29822-3 0    08
2 28647  56.9986  69.2113 0130577 306.5064  53.4935 15.02327243    09
Epoch (UTC): 27 March 2015 19:47:32
Eccentricity: 0.0130577
inclination: 56.9986°
perigee height: 469 km
apogee height: 650 km
right ascension of ascending node: 69.2113°
argument of perigee: 306.5064°
revolutions per day: 15.02327243
mean anomaly at epoch: 53.4935°
orbit number at epoch: 0

The dashed part of the orbit path shows where the satellite is in the earth's shadow,  

DLR